{"data":{"norad_id":64580,"epoch":"2026-09-21T20:33:33.211296Z","epoch_age_seconds":60991,"freshness":"FRESH","line1":"1 64580U 25135BE  26264.85663439  .00001189  00000+0  12258-3 0  9992","line2":"2 64580  97.7806  17.4231 0004013  51.0940 309.0637 14.92085623 68278","mean_motion":14.92085623,"eccentricity":0.0004013,"inclination_deg":97.7806,"raan_deg":17.4231,"arg_perigee_deg":51.094,"mean_anomaly_deg":309.0637,"bstar":0.00012258,"rev_number":6827,"period_min":96.509206831222,"perigee_km":588.63653621389,"apogee_km":594.23031343686,"semimajor_km":6969.5704248254,"source":"CELESTRAK","updated_at":"2026-09-22T09:00:29.853523Z"}}